Flag for Malaysia Weather past 2 weeks in Johor Bahru, Malaysia

Now
88 °F

Partly sunny.


Feels Like: 100 °F
Forecast: 80 / 89 °F
Wind: 9 mph from Southwest

Location: Singapore / Paya Lebar

Current Time: Jul 28, 2014 at 6:49:34 PM

Latest Report: Jul 28, 2014 at 6:00 PM


Visibility: N/A

Pressure: 29.74 "Hg

Humidity: 70%

Dew point: 77 °F

Location of Johor BahruLocation

Historic Weather in Johor Bahru — Graph

°F

Johor Bahru temperature yesterday

Maximum temperature yesterday: 90 °F (at 4:00 PM)
Minimum temperature yesterday: 75 °F (at 9:00 AM)
Average temperature yesterday: 84 °F

Past Weeks' High & Low Weather Summary

 TemperatureHumidityPressure
High93 °F (Jul 14, 4:00 PM)94% (Jul 20, 8:00 AM)29.89 "Hg (Jul 20, 8:00 AM)
Low75 °F (Jul 27, 9:00 AM)49% (Jul 25, 3:00 PM)29.71 "Hg (Jul 13, 5:00 PM)
Average86 °F73%29.81 "Hg
* Reported Jul 13 5:00 PM — Jul 28 5:00 PM, Johor Bahru, Weather by CustomWeather, © 2014

Note: Actual official high and low records may vary slightly from our data, if they occured in-between our weather recording intervals... More about our weather records

Advertising

Johor Bahru weather history for previous 24 hours

 ConditionsComfort  
Time TempWeatherWind HumidityBarometerVisibility
5:00 PM
Jul 28
86 °FPartly sunny.7 mph75%29.77 "HgN/A
4:00 PM86 °FPartly sunny.10 mph75%29.77 "HgN/A
3:00 PM90 °FPartly sunny.17 mph67%29.77 "HgN/A
2:00 PM90 °FBroken clouds.16 mph63%29.77 "HgN/A
1:00 PM91 °FBroken clouds.10 mph63%29.80 "HgN/A
12:00 PM88 °FPartly sunny.8 mph66%29.83 "HgN/A
11:00 AM88 °FPartly sunny.7 mph70%29.86 "HgN/A
10:00 AM86 °FPartly sunny.7 mph75%29.86 "HgN/A
9:00 AM84 °FPartly sunny.6 mph84%29.86 "HgN/A
8:00 AM82 °FPartly sunny.2 mph89%29.83 "HgN/A
7:00 AM82 °FPassing clouds.3 mph84%29.80 "HgN/A
6:00 AM82 °FPassing clouds.5 mph84%29.80 "HgN/A
5:00 AM82 °FPassing clouds.5 mph84%29.83 "HgN/A
11:00 PM
Jul 27
84 °FPassing clouds.3 mph79%29.89 "HgN/A
10:00 PM84 °FPassing clouds.3 mph79%29.86 "HgN/A
9:00 PM84 °FPassing clouds.5 mph84%29.86 "HgN/A
8:00 PM84 °FPassing clouds.6 mph79%29.83 "HgN/A
7:00 PM86 °FScattered clouds.7 mph70%29.80 "HgN/A
6:00 PM88 °FPartly sunny.6 mph66%29.80 "HgN/A
Weather by CustomWeather, © 2014

See weather overviewHow to use our weather pages